Showing default

SHIYAN 24C 01, 58650

Orbit data source: Space-Track

SHIYAN 24C 01, 58650 is a payload satellite owned by CASC (CN) in SSO that was launched on Mon, 25 Dec 2023 UTC via a CHANG ZHENG 11 launch vehicle from the South China Sea Launch Area (SCSLA). Payload-class satellites include a variety of spacecraft equipped with specific instruments for various scientific and technological missions. These include communications satellites like Starlink; space stations such as the ISS; scientific satellites like the Hubble; Earth observation satellites from companies like Planet Labs, Umbra, and HawkEye 360; GPS; miniature CubeSats for education and research; and military/defense satellites.

Loading next visibility...
Identifier
58650, 2023-206A
Orbit
SSO
Last TLE update
2 hours ago
Origin
Manufacturer
SECM?
Mission
Operational Defense Technology
Bus & Motor
Unknown
Mass
~80 kg wet, ~80 kg dry
Launch date (UTC)
2023-12-25 (2 years ago)
Launch vehicle
CHANG ZHENG 11
Launch site
South China Sea Launch Area (SCSLA)
Object type
Payload
Rocket body
Debris
Shape & HBR
Box + 2 Pan, 8 m
Radar Cross Section
6.005 m², Medium (>0.1 m² and < 1m²)

Expand to show TLE details & history

TLE from 2 hours ago
0 SHIYAN 24C 01
1 58650U 23206A   25183.76480804  .00001984  00000-0  17747-3 0  9994
2 58650  97.3627 165.5315 0001275 339.7713  20.3459 14.96909192 83019
Epoch: 2025-07-02T18:21Z
TLE epoch observation values (Epoch: 2025-07-02T18:21:19.414Z)
Latitude
-0.00003°
Longitude
-30.84061°
Altitude
578.682 km
Speed
7.572 km/s
True Right ascension
11h 02m 07s
True Declination
0° 00' 00"
Sunlit
Object was in daylight at epoch
Visualization orbit readout
Latitude
26.01187°
Longitude
-34.36857°
Altitude
579.124 km
Speed
7.574 km/s
Apparent Right ascension
14h 12m 34s
Apparent Declination
-13° 08' 48"
Sunlit
Object is in daylight
Visualization observer readout
Local Sidereal Time
07:48:31
Azimuth
96.421° ESE
Elevation
-12.955°
Doppler factor
1
Orbital elements
Apogee altitude
574.334 km
Perigee altitude
572.562 km
Semi-major axis
6,951.585 km
Eccentricity
0.00013
Inclination
97.3627°
RAAN
165.5315°
Arg. of periapsis
339.7713°
True anomaly
Unknown
Mean anomaly
20.3459°
Eccentric anomaly
Unknown
Mean motion
3.7447 °/min
Orbital period
96.14 mins
BSTAR
0.00017747
Loading maneuver chart data...
Loading SW <> Apogee altitude chart data...
Loading historical data...
Loading historical data...
Loading historical data...
Loading historical data...
Loading historical data...
Loading historical data...
Loading historical data...
Other satellites on launch #206 in the year 2023 (2023-12-25 UTC)

SHIYAN 24C 01 Visibility forecast

Observer location: undefined°, undefined°

Span
Click to sort rows by Start time (UTC) header in descending order
Start Az.
Max El. time (UTC)
Max El. Az.
Max El.
End time (UTC)
End Az.
4 mins2025-07-02 21:43:33.355Z98.957° ESE2025-07-02 21:45:33.355Z68.215° E14.647°2025-07-02 21:47:33.355Z36.479° NE
5 mins2025-07-02 23:18:33.355Z205.029° SW2025-07-02 23:20:33.355Z260.129° W33.488°2025-07-02 23:23:33.355Z327.84° NNW
5 mins2025-07-03 10:59:33.355Z51.719° ENE2025-07-03 11:01:33.355Z95.628° ESE25.232°2025-07-03 11:04:33.355Z151.633° SSE
4 mins2025-07-03 12:35:33.355Z314.515° NW2025-07-03 12:36:33.355Z294.087° NW20.041°2025-07-03 12:39:33.355Z243.638° WSW
|